Track FLOCK 4A 14 now! 10-day predictions FLOCK 4A 14 is classified as:
1 44101U 19018Z 22181.66883315 .00008884 00000-0 28234-3 0 9993 2 44101 97.3123 242.2257 0010992 87.9088 272.3413 15.32799770180744